Spokane Fairchild, WA
on Tuesday, November 27, 2012

Tuesday
Previous Day Next Day
Daily Summary
 ActualAverage (KGEG)Record (KGEG)
Temperature
Mean Temperature °F 31°F  
Max Temperature 37°F 36°F 57°F (1949)
Min Temperature 28°F 27°F -12°F (1985)
Degree Days
Heating Degree Days 32 34  
Month to date heating degree days 776  
Since 1 July heating degree days 1564  
Cooling Degree Days 0 0  
Month to date cooling degree days 0  
Year to date cooling degree days 450  
Moisture
Dew Point 32°F   
Average Humidity 100    
Maximum Humidity 100    
Minimum Humidity 99    
Precipitation
Precipitation 0.00 in 0.08 in 1.04 in (1996)
Month to date precipitation 2.04  
Year to date precipitation 14.00  
Wind
Wind Speed 7 mph   
Max Wind Speed 10 mph   
Max Gust Speed mph   
Visibility 10 miles   
Events     

Key: T is trace of precipitation, MM is missing value
Source: NWS Daily Summary
Time(PST)TemperatureDew PointHumidity Pressure Visibility Wind DirectionWind SpeedGust SpeedPrecipitationEvents Conditions
12:04 AM 30.2°F 30.2°F 100% 30.17 in 10.0 miles NNE 6.9 mph - N/A   Overcast
12:58 AM 29.3°F 29.3°F 100% 30.25 in 10.0 miles North 5.8 mph - 0.00 in   Overcast
1:58 AM 28.8°F 28.8°F 100% 30.25 in 10.0 miles North 4.6 mph - N/A   Overcast
2:58 AM 28.8°F 28.8°F 100% 30.25 in 10.0 miles North 5.8 mph - N/A   Overcast
3:58 AM 28.8°F 28.8°F 100% 30.25 in 10.0 miles North 5.8 mph - N/A   Overcast
4:58 AM 29.1°F 29.1°F 100% 30.25 in 10.0 miles North 6.9 mph - N/A   Overcast
5:33 AM 28.4°F 28.4°F 100% 30.16 in 10.0 miles NNE 8.1 mph - N/A   Overcast
5:47 AM 28.4°F 28.4°F 100% 30.17 in 10.0 miles NNE 6.9 mph - N/A   Overcast
5:58 AM 29.1°F 29.1°F 100% 30.26 in 10.0 miles North 5.8 mph - 0.00 in   Overcast
6:58 AM 29.1°F 29.1°F 100% 30.26 in 10.0 miles North 5.8 mph - N/A   Overcast
7:58 AM 29.7°F 29.7°F 100% 30.26 in 10.0 miles NNE 8.1 mph - N/A   Overcast
8:58 AM 30.4°F 30.4°F 100% 30.27 in 10.0 miles North 6.9 mph - N/A   Overcast
9:58 AM 31.1°F 31.1°F 100% 30.27 in 10.0 miles NNE 4.6 mph - N/A   Overcast
10:58 AM 33.1°F 33.1°F 100% 30.27 in 10.0 miles NNE 6.9 mph - N/A   Clear
11:37 AM 35.6°F 35.6°F 100% 30.16 in 10.0 miles NNE 8.1 mph - N/A   Light Drizzle
11:47 AM 35.6°F 35.6°F 100% 30.16 in 10.0 miles NNE 8.1 mph - N/A   Clear
11:58 AM 36.0°F 36.0°F 100% 30.23 in 10.0 miles NNE 8.1 mph - 0.00 in   Clear
12:58 PM 36.9°F 36.7°F 99% 30.21 in 10.0 miles NNE 9.2 mph - N/A   Overcast
1:14 PM 37.4°F 37.4°F 100% 30.14 in 10.0 miles NE 9.2 mph - N/A   Mostly Cloudy
1:17 PM 37.4°F 37.4°F 100% 30.14 in 10.0 miles North 10.4 mph - N/A   Mostly Cloudy
1:58 PM 37.0°F 36.7°F 99% 30.20 in 10.0 miles NNE 8.1 mph - 0.00 in   Clear
2:58 PM 36.5°F 36.1°F 99% 30.19 in 10.0 miles NNE 6.9 mph - N/A   Partly Cloudy
3:58 PM 34.5°F 34.5°F 100% 30.19 in 10.0 miles Variable 6.9 mph - N/A   Partly Cloudy
4:28 PM 32.0°F 32.0°F 100% 30.11 in 10.0 miles North 4.6 mph - N/A   Clear
4:42 PM 32.0°F 32.0°F 100% 30.11 in 10.0 miles North 4.6 mph - N/A   Clear
4:58 PM 31.8°F 31.8°F 100% 30.18 in 10.0 miles North 5.8 mph - 0.00 in   Clear
5:58 PM 31.6°F 31.6°F 100% 30.17 in 10.0 miles North 6.9 mph - N/A   Mostly Cloudy
6:42 PM 32.0°F 32.0°F 100% 30.09 in 10.0 miles Variable 5.8 mph - N/A   Scattered Clouds
6:49 PM 30.2°F 30.2°F 100% 30.09 in 10.0 miles North 5.8 mph - N/A   Mostly Cloudy
6:58 PM 30.2°F 30.2°F 100% 30.17 in 10.0 miles North 4.6 mph - 0.00 in   Mostly Cloudy
7:58 PM 30.2°F 30.2°F 100% 30.16 in 10.0 miles North 8.1 mph - N/A   Mostly Cloudy
8:58 PM 30.6°F 30.6°F 100% 30.16 in 10.0 miles North 4.6 mph - N/A   Mostly Cloudy
9:58 PM 30.2°F 30.2°F 100% 30.15 in 10.0 miles NNE 6.9 mph - N/A   Clear
10:58 PM 30.6°F 30.6°F 100% 30.15 in 10.0 miles NNE 6.9 mph - N/A   Mostly Cloudy
11:58 PM 30.7°F 30.7°F 100% 30.14 in 10.0 miles NNE 6.9 mph - N/A   Mostly Cloudy
Moon Phase
Nov. 27 Nov. 28 Dec. 06 Dec. 13 Dec. 20
Sunrise:07:13 AM (PST) Moon Rise:03:38 PM (PST)11/27
Sunset:04:03 PM (PST) Moon Set:06:21 AM (PST)11/27

Copyright © 2014 The Weather Underground, Inc.